Location: Chin
(49.7667°N, 112.4500°W)
Time: 09:54:12
(UTC+00:00)

Envisat - Pass Details

Date: 03 December 2021
Orbit: 764 x 766 km, 98.2° (Epoch: 23 January)

Event Time Altitude Azimuth Distance (km) Brightness Sun altitude
Rises 11:09:41 0° 28° (NNE) 3,246 6.7 -37.5°
Reaches altitude 10° 11:13:00 10° 51° (NE) 2,313 6.1 -37.0°
Maximum altitude 11:15:58 16° 87° (E) 1,950 5.7 -36.5°
Drops below altitude 10° 11:18:57 10° 123° (ESE) 2,302 5.9 -36.1°
Sets 11:22:13 0° 146° (SE) 3,221 6.5 -35.5°
